EST,Max TemperatureF,Mean TemperatureF,Min TemperatureF,Max Dew PointF,MeanDew PointF,Min DewpointF,Max Humidity, Mean Humidity, Min Humidity, Max Sea Level PressureIn, Mean Sea Level PressureIn, Min Sea Level PressureIn, Max VisibilityMiles, Mean VisibilityMiles, Min VisibilityMiles, Max Wind SpeedMPH, Mean Wind SpeedMPH, Max Gust SpeedMPH,PrecipitationIn, CloudCover, Events, WindDirDegrees
2014-1-1,47,40,32,41,35,30,100,79,58,30.39,30.29,30.17,10,8,4,7,2,9,0.03,4,Rain,116
2014-1-2,53,41,29,52,41,19,100,82,63,30.15,29.96,29.80,10,6,0,29,10,36,0.20,7,Fog-Rain,275
2014-1-3,37,29,21,19,13,9,92,64,35,30.44,30.36,30.19,10,10,10,29,9,37,0.00,1,,335
2014-1-4,38,29,19,32,21,14,92,70,47,30.43,30.35,30.21,10,10,10,12,5,17,0.00,6,,95
2014-1-5,53,44,34,53,40,32,100,87,74,30.21,30.04,29.78,10,4,1,12,4,15,0.04,8,Rain,109
2014-1-6,56,35,13,54,26,-1,100,71,42,30.47,30.07,29.77,10,8,2,28,17,38,0.06,5,Rain,300
2014-1-7,26,17,7,10,1,-4,80,56,32,30.60,30.53,30.48,10,10,10,21,8,27,0.00,0,,311
2014-1-8,46,29,11,16,9,0,92,53,14,30.59,30.52,30.46,10,10,10,9,1,12,0.00,0,,137
2014-1-9,49,36,22,41,27,14,89,60,31,30.53,30.44,30.38,10,10,2,10,4,14,0.01,6,Rain,90
2014-1-10,50,45,40,49,44,37,100,88,76,30.35,30.19,30.02,10,3,1,10,5,15,0.17,8,Rain,96
2014-1-11,66,57,48,64,54,31,100,70,40,30.01,29.86,29.74,10,5,0,23,7,37,1.71,7,Fog-Rain-Thunderstorm,202
2014-1-12,60,46,31,39,35,31,100,68,36,30.22,30.14,30.00,10,10,6,13,2,19,0.00,0,,262
2014-1-13,62,47,31,47,40,30,100,70,40,30.19,30.04,29.89,10,10,6,13,4,19,0.08,4,Rain,159
2014-1-14,60,47,33,52,43,30,100,68,35,30.05,29.92,29.82,10,8,2,18,5,23,0.01,4,Rain,300
2014-1-15,47,38,29,34,26,15,100,69,37,30.09,30.03,29.99,10,10,10,18,7,24,T,2,Rain,308
2014-1-16,46,34,22,23,17,11,81,54,27,30.16,30.08,30.03,10,10,10,13,5,19,0.00,0,,292
2014-1-17,53,40,27,32,21,11,81,50,19,30.13,30.03,29.95,10,10,10,22,9,34,0.00,0,,258
2014-1-18,46,36,25,17,12,7,63,41,19,30.26,30.14,30.04,10,10,10,14,6,19,0.00,0,,261
2014-1-19,55,42,28,31,26,16,85,59,32,30.12,30.07,30.00,10,10,10,16,5,23,0.00,1,,273
2014-1-20,69,47,24,30,24,15,100,57,13,30.09,30.01,29.91,10,10,9,14,4,21,0.00,0,,252
2014-1-21,51,38,25,35,25,13,70,54,38,30.07,29.89,29.78,10,10,10,28,13,36,0.00,4,,303
2014-1-22,38,28,18,13,6,-3,67,43,19,30.21,30.14,30.07,10,10,10,20,7,25,0.00,1,,314
2014-1-23,42,31,19,15,9,-2,73,48,23,30.55,30.37,30.21,10,10,10,20,7,25,0.00,0,,316
2014-1-24,36,25,13,8,-1,-9,73,44,14,30.65,30.52,30.32,10,10,10,22,6,30,0.00,1,,329
2014-1-25,49,30,10,20,13,7,92,58,24,30.30,30.06,29.91,10,10,10,17,5,28,0.00,2,,267
2014-1-26,58,40,22,31,25,19,92,61,30,30.06,29.99,29.93,10,10,10,13,3,20,0.00,1,,216
2014-1-27,61,47,32,46,33,5,92,60,27,30.11,29.97,29.89,10,10,7,22,7,30,0.00,5,,307
2014-1-28,32,27,22,23,16,2,92,62,31,30.26,30.18,30.12,10,4,0,16,10,20,0.07,7,Fog-Snow,335
2014-1-29,30,20,10,14,5,0,77,53,28,30.38,30.33,30.26,10,10,10,17,7,24,0.00,1,,332
2014-1-30,42,22,2,20,10,-1,95,63,30,30.40,30.31,30.22,10,10,10,12,2,15,0.00,0,,122
2014-1-31,58,37,15,26,17,11,92,54,15,30.28,30.21,30.15,10,10,9,7,1,10,0.00,0,,96